This demonstration page uses our WeatherBlox Daily Observations layout. Learn more.

Hourly Observations for May 3, 2016

Temp ( °F °C ) Dew Point ( °F °C ) Humidity (%) Winds ( mph kmh ) Pressure ( in mb ) Visibility ( mi km ) Precip ( " mm )
12:15 am 00:15 Mostly Cloudy 46 7.8 40 4.6 80 80 SSE 3 6 30.06 1018 10 16.0934 0 0
12:35 am 00:35 Cloudy 46 8 40 4.5 79 79 SE 6 9 30.06 1018 10 16.0934 0 0
12:55 am 00:55 Partly Cloudy 45 7.2 40 4.3 82 82 SE 6 9 30.06 1018 10 16.0934 0 0
1:15 am 01:15 Mostly Cloudy 45 7.3 40 4.3 81 81 SSE 6 9 30.06 1018 10 16.0934 0 0
1:35 am 01:35 Mostly Cloudy 46 7.7 39 4.1 78 78 SSE 5 7 30.06 1018 10 16.0934 0 0
1:55 am 01:55 Cloudy 45 7.2 40 4.2 81 81 SSE 5 7 30.06 1018 10 16.0934 0 0
2:15 am 02:15 Cloudy 46 7.8 40 4.5 80 80 SSE 3 6 30.06 1018 10 16.0934 0 0
2:35 am 02:35 Cloudy 46 7.7 40 4.6 81 81 SSE 3 6 30.06 1018 10 16.0934 0 0
2:55 am 02:55 Cloudy 46 8 40 4.7 80 80 Calm 30.06 1018 10 16.0934 0 0
3:15 am 03:15 Cloudy 46 7.6 41 5.2 85 85 Calm 30.06 1018 10 16.0934 0 0
3:35 am 03:35 Cloudy with Light Rain 46 7.9 41 5.1 83 83 Calm 30.06 1018 10 16.0934 0 0
3:55 am 03:55 Cloudy 46 7.6 42 5.6 87 87 Calm 30.06 1018 10 16.0934 0 0
4:15 am 04:15 Cloudy 46 7.5 42 5.5 87 87 Calm 30.06 1018 10 16.0934 0 0
4:35 am 04:35 Cloudy 46 7.5 42 5.4 87 87 Calm 30.06 1018 10 16.0934 0 0
4:55 am 04:55 Mostly Cloudy 44 6.7 41 5 89 89 Calm 30.06 1018 10 16.0934 0 0
5:15 am 05:15 Mostly Cloudy 44 6.4 40 4.6 88 88 Calm 30.06 1018 10 16.0934 0 0
5:35 am 05:35 Partly Cloudy 43 6 40 4.5 90 90 Calm 30.09 1019 10 16.0934 0 0
5:55 am 05:55 Clear 41 5.2 39 3.9 91 91 Calm 30.09 1019 10 16.0934 0 0
6:15 am 06:15 Clear 41 5.1 39 4.1 93 93 Calm 30.09 1019 10 16.0934 0 0
6:35 am 06:35 Sunny 41 4.9 39 3.9 93 93 Calm 30.09 1019 10 16.0934 0 0
6:55 am 06:55 Sunny 42 5.3 40 4.2 93 93 Calm 30.09 1019 10 16.0934 0 0
7:15 am 07:15 Sunny 42 5.4 40 4.4 93 93 N 3 6 30.12 1020 10 16.0934 0 0
7:35 am 07:35 Sunny 44 6.7 42 5.5 92 92 Calm 30.06 1018 10 16.0934 0 0
7:55 am 07:55 Sunny 45 7.2 42 5.5 89 89 Calm 30.09 1019 10 16.0934 0 0
8:15 am 08:15 Sunny 48 8.7 43 6 83 83 Calm 30.09 1019 10 16.0934 0 0
8:35 am 08:35 Sunny 49 9.5 44 6.4 81 81 N 6 9 30.09 1019 10 16.0934 0 0
8:55 am 08:55 Sunny 50 10 43 6.2 77 77 N 8 13 30.06 1018 10 16.0934 0 0
9:15 am 09:15 Sunny 51 10.5 44 6.8 78 78 NNE 8 13 30.06 1018 10 16.0934 0 0
9:35 am 09:35 Sunny 52 11.1 45 7.1 77 77 NNE 6 9 30.06 1018 10 16.0934 0 0
9:55 am 09:55 Sunny 54 12 45 7.2 73 73 N 6 9 30.06 1018 10 16.0934 0 0
10:15 am 10:15 Sunny 55 12.8 45 7.1 69 69 N 6 9 30.06 1018 10 16.0934 0 0
10:35 am 10:35 Sunny 56 13.6 44 6.8 64 64 N 7 11 30.03 1017 10 16.0934 0 0
10:55 am 10:55 Sunny 57 14 44 6.4 60 60 NE 6 9 30.03 1017 10 16.0934 0 0
11:15 am 11:15 Sunny 58 14.7 42 5.8 55 55 E 3 6 30.03 1017 10 16.0934 0 0
11:35 am 11:35 Sunny 59 15.1 40 4.6 50 50 Calm 30.06 1018 10 16.0934 0 0
11:55 am 11:55 Sunny 61 16 42 5.3 49 49 ESE 6 9 30.06 1018 10 16.0934 0 0
12:15 pm 12:15 Sunny 61 16.1 41 4.9 48 48 ESE 3 6 30.06 1018 10 16.0934 0 0
12:35 pm 12:35 Partly Cloudy 61 16.2 38 3.2 42 42 Calm 30.06 1018 10 16.0934 0 0
12:55 pm 12:55 Partly Cloudy 62 16.8 41 4.8 45 45 E 3 6 30.06 1018 10 16.0934 0 0
1:15 pm 13:15 Sunny 62 16.7 39 3.7 42 42 N 3 6 30 1016 10 16.0934 0 0
1:35 pm 13:35 Sunny 63 17 38 3.6 41 41 Calm 30 1016 10 16.0934 0 0
1:55 pm 13:55 Sunny 64 17.5 38 3.6 40 40 Calm 30 1016 10 16.0934 0 0
2:15 pm 14:15 Sunny 64 17.5 39 3.7 40 40 SSE 3 6 30 1016 10 16.0934 0 0
2:35 pm 14:35 Mostly Cloudy 64 17.8 40 4.3 41 41 Calm 30 1016 10 16.0934 0 0
2:55 pm 14:55 Partly Cloudy 65 18.1 40 4.6 41 41 Calm 30 1016 10 16.0934 0 0
3:15 pm 15:15 Partly Cloudy 65 18.1 39 3.8 39 39 W 7 11 30 1016 10 16.0934 0 0
3:35 pm 15:35 Partly Cloudy 66 18.7 41 4.9 40 40 WSW 6 9 30 1016 10 16.0934 0 0
3:55 pm 15:55 Sunny 66 18.8 39 3.8 37 37 Calm 29.97 1015 10 16.0934 0 0
4:15 pm 16:15 Partly Cloudy 66 19.1 41 5 40 40 W 8 13 29.97 1015 10 16.0934 0 0
4:35 pm 16:35 Partly Cloudy 66 19 40 4.7 39 39 WNW 8 13 29.97 1015 10 16.0934 0 0
4:55 pm 16:55 Sunny 66 19.1 38 3.3 35 35 WNW 7 11 29.97 1015 10 16.0934 0 0
5:15 pm 17:15 Sunny 67 19.2 36 2.3 33 33 WNW 8 13 29.97 1015 10 16.0934 0 0
5:35 pm 17:35 Sunny 66 18.8 38 3.5 36 36 NNW 12 19 29.97 1015 10 16.0934 0 0
5:55 pm 17:55 Sunny 67 19.3 38 3.6 36 36 NW 8 13 29.97 1015 10 16.0934 0 0
6:15 pm 18:15 Sunny 67 19.2 38 3.5 35 35 NW 12 19 29.97 1015 10 16.0934 0 0
6:35 pm 18:35 Sunny 67 19.3 38 3.6 36 36 NW 10 17 29.97 1015 10 16.0934 0 0
6:55 pm 18:55 Sunny 67 19.2 38 3.3 35 35 NW 9 15 29.97 1015 10 16.0934 0 0
7:15 pm 19:15 Sunny 66 19 39 3.8 37 37 NW 6 9 29.94 1014 10 16.0934 0 0
7:35 pm 19:35 Sunny 66 18.7 37 2.8 35 35 NW 7 11 29.94 1014 10 16.0934 0 0
7:55 pm 19:55 Sunny 65 18.1 40 4.7 41 41 NW 3 6 29.94 1014 10 16.0934 0 0
8:15 pm 20:15 Sunny 63 17.4 40 4.4 42 42 WNW 5 7 29.94 1014 10 16.0934 0 0
8:35 pm 20:35 Sunny 60 15.8 44 6.6 55 55 WNW 3 6 29.97 1015 10 16.0934 0 0
8:55 pm 20:55 Clear 59 15.2 43 6 54 54 Calm 29.97 1015 10 16.0934 0 0
9:15 pm 21:15 Clear 58 14.5 43 6.1 57 57 W 3 6 29.97 1015 10 16.0934 0 0
9:35 pm 21:35 Clear 57 14.1 42 5.8 58 58 W 5 7 29.97 1015 10 16.0934 0 0
9:55 pm 21:55 Clear 56 13.5 42 5.6 59 59 W 6 9 29.97 1015 10 16.0934 0 0
10:15 pm 22:15 Clear 57 13.8 42 5.5 58 58 W 6 9 30 1016 10 16.0934 0 0
10:55 pm 22:55 Clear 55 13 42 5.3 60 60 W 6 9 30 1016 10 16.0934 0 0
11:15 pm 23:15 Clear 55 12.6 41 5.2 61 61 W 6 9 30.03 1017 10 16.0934 0 0
11:35 pm 23:35 Clear 54 12 42 5.4 64 64 WNW 6 9 30.03 1017 10 16.0934 0 0
11:55 pm 23:55 Clear 53 11.7 41 5.2 65 65 WNW 6 9 30.03 1017 10 16.0934 0 0

Powered by AerisWeather